カタログに戻る

FENGYUN 1C DEB

運用中SSO
NORAD 31017·DEBRIS·🇨🇳 China

打ち上げ May 10, 1999 から Taiyuan Satellite Launch Center

Loading…

次のパス (今後24時間)

TLE

最新Source: Space-Track

元期: Sep 14, 2026, 04:23 UTC

1 31017U 99025BDK 26257.18274485  .00000401  00000-0  24201-3 0  9995
2 31017  98.7062 238.6826 0111655 290.1998 129.6159 14.09131329  1746

AllMySatでFENGYUN 1C DEBをリアルタイム追跡

Download on the App Store